Location: F M Corners
(41.2198°N, 80.4709°W)
Time: 17:44:29
(UTC+00:00)

Timation 2 Rocket - Pass Details

Date: 29 October 2020
Orbit: 904 x 1077 km, 70.0° (Epoch: 24 November)

Event Time Altitude Azimuth Distance (km) Brightness Sun altitude
Rises 22:46:41 0° 335° (NNW) 3,758 7.2 -5.6°
Reaches altitude 10° 22:49:14 10° 336° (NNW) 2,827 6.6 -6.1°
Maximum altitude 22:55:55 81° 65° (ENE) 1,070 4.2 -7.3°
Drops below altitude 10° 23:02:46 10° 153° (SSE) 2,896 6.3 -8.6°
Sets 23:05:25 0° 154° (SSE) 3,855 7.0 -9.0°
